This is the latest recevied weather packets stored in our database for station/object IK6IHU-3. If no packets are shown the sender has not sent any weather packets the latest 10 day(s).
| Time | Temp. | Humidity | Pressure | Rain* | Wind** | Luminosity | Snow |
|---|---|---|---|---|---|---|---|
| 1777711215 | 15.56° C | 50% | 1023.8 hPa | 0 mm | - | 0 W/m² | - |
| 1777711156 | 15.56° C | 53% | 1024 hPa | 0 mm | - | 0 W/m² | - |
| 1777711096 | 15° C | 51% | 1023.8 hPa | 0 mm | - | 0 W/m² | - |
| 1777711035 | 15° C | 51% | 1023.9 hPa | 0 mm | - | 0 W/m² | - |
| 1777710976 | 14.44° C | 49% | 1023.7 hPa | 0 mm | - | 0 W/m² | - |
| 1777710916 | 14.44° C | 51% | 1023.5 hPa | 0 mm | - | 0 W/m² | - |
| 1777710855 | 14.44° C | 50% | 1023.8 hPa | 0 mm | - | 0 W/m² | - |
| 1777710796 | 14.44° C | 50% | 1023.9 hPa | 0 mm | - | 0 W/m² | - |
| 1777710736 | 15° C | 53% | 1023.8 hPa | 0 mm | - | 0 W/m² | - |
| 1777710676 | 15° C | 51% | 1023.7 hPa | 0 mm | - | 0 W/m² | - |
| 1777710616 | 15° C | 51% | 1023.6 hPa | 0 mm | - | 0 W/m² | - |
| 1777710556 | 15.56° C | 53% | 1023.7 hPa | 0 mm | - | 0 W/m² | - |
| 1777710496 | 15° C | 51% | 1023.8 hPa | 0 mm | - | 0 W/m² | - |
| 1777710436 | 15° C | 50% | 1023.7 hPa | 0 mm | - | 0 W/m² | - |
| 1777710376 | 15.56° C | 54% | 1023.7 hPa | 0 mm | - | 0 W/m² | - |
| 1777710316 | 15.56° C | 56% | 1023.9 hPa | 0 mm | - | 0 W/m² | - |
| 1777710256 | 15° C | 55% | 1023.8 hPa | 0 mm | - | 0 W/m² | - |
| 1777710196 | 15° C | 53% | 1023.6 hPa | 0 mm | - | 0 W/m² | - |
| 1777710136 | 15° C | 54% | 1023.9 hPa | 0 mm | - | 0 W/m² | - |
| 1777710076 | 14.44° C | 53% | 1023.8 hPa | 0 mm | - | 0 W/m² | - |
| 1777710015 | 15° C | 55% | 1023.7 hPa | 0 mm | - | 0 W/m² | - |
| 1777709956 | 14.44° C | 55% | 1023.8 hPa | 0 mm | - | 0 W/m² | - |
| 1777709896 | 15° C | 56% | 1023.7 hPa | 0 mm | - | 0 W/m² | - |
| 1777709835 | 14.44° C | 55% | 1023.8 hPa | 0 mm | - | 0 W/m² | - |
| 1777709775 | 15° C | 54% | 1023.7 hPa | 0 mm | - | 0 W/m² | - |
* Rain latest hour (hover to see other rain measurements)
** Current wind speed in m/s (hover to see current wind gust speed)